CPA346 EBBR-EKCH

Flight info

Callsign CPA346
Flight time 1h 1m
Altitude 38000
Route NIK L191 VICOT N873 SPY/N0474F390 DCT DOSUR P729 TUDLO
Aircraft A346/H-SDE2E3FGHIJ3J4J5M1RWXY/LB1D1

Departure

Time 2026-05-06 17:21
Airport Brussels Airport (EBBR)

Arrival

Time 2026-05-06 18:23
Airport Copenhagen Kastrup Airport (EKCH)
Time Latitude Longitude Altitude Speed Heading
2026-05-06 16:49 50.90087 4.48728 202 ft 0 kts 155°
2026-05-06 17:09 50.90089 4.48727 202 ft 1 kts 155°
2026-05-06 17:10 50.90098 4.48721 202 ft 1 kts 155°
2026-05-06 17:10 50.90111 4.48709 202 ft 2 kts 139°
2026-05-06 17:10 50.90121 4.48691 202 ft 2 kts 120°
2026-05-06 17:10 50.90127 4.48670 202 ft 2 kts 103°
2026-05-06 17:11 50.90129 4.48646 202 ft 2 kts 86°
2026-05-06 17:11 50.90126 4.48623 202 ft 2 kts 69°
2026-05-06 17:11 50.90123 4.48613 202 ft 1 kts 64°
2026-05-06 17:11 50.90123 4.48612 202 ft 0 kts 64°
2026-05-06 17:15 50.90124 4.48615 202 ft 1 kts 64°
2026-05-06 17:15 50.90136 4.48658 202 ft 6 kts 66°
2026-05-06 17:16 50.90161 4.48749 202 ft 11 kts 65°
2026-05-06 17:16 50.90198 4.48875 202 ft 14 kts 65°
2026-05-06 17:16 50.90243 4.49032 202 ft 16 kts 65°
2026-05-06 17:16 50.90295 4.49212 202 ft 19 kts 64°
2026-05-06 17:17 50.90354 4.49411 202 ft 20 kts 65°
2026-05-06 17:17 50.90427 4.49581 202 ft 17 kts 23°
2026-05-06 17:17 50.90551 4.49631 202 ft 19 kts 15°
2026-05-06 17:17 50.90684 4.49688 202 ft 20 kts 14°
2026-05-06 17:18 50.90828 4.49747 202 ft 22 kts 14°
2026-05-06 17:18 50.90950 4.49821 202 ft 17 kts 37°
2026-05-06 17:18 50.91024 4.49901 202 ft 4 kts 24°
2026-05-06 17:18 50.91038 4.49911 202 ft 0 kts 23°
2026-05-06 17:19 50.91061 4.49927 202 ft 7 kts 23°
2026-05-06 17:19 50.91128 4.49920 202 ft 11 kts 306°
2026-05-06 17:19 50.91114 4.49813 202 ft 10 kts 245°
2026-05-06 17:19 50.91105 4.49779 202 ft 0 kts 246°
2026-05-06 17:20 50.91104 4.49774 202 ft 2 kts 246°
2026-05-06 17:20 50.91008 4.49428 202 ft 75 kts 244°
2026-05-06 17:20 50.90680 4.48307 202 ft 148 kts 243°
2026-05-06 17:21 50.90160 4.46549 388 ft 190 kts 247°
2026-05-06 17:21 50.89613 4.44674 1105 ft 190 kts 251°
2026-05-06 17:21 50.89527 4.42647 1778 ft 188 kts 295°
2026-05-06 17:21 50.90345 4.41179 2455 ft 183 kts 335°
2026-05-06 17:22 50.91525 4.40286 3077 ft 194 kts 338°
2026-05-06 17:22 50.92768 4.39342 3789 ft 203 kts 338°
2026-05-06 17:22 50.94103 4.38429 4349 ft 220 kts 338°
2026-05-06 17:22 50.95569 4.37368 4863 ft 243 kts 336°
2026-05-06 17:23 50.97135 4.36112 5521 ft 259 kts 334°
2026-05-06 17:23 50.98717 4.34755 6434 ft 264 kts 332°
2026-05-06 17:23 51.00333 4.33319 7417 ft 267 kts 331°
2026-05-06 17:23 51.01934 4.31869 8329 ft 271 kts 331°
2026-05-06 17:24 51.03566 4.30377 9253 ft 275 kts 330°
2026-05-06 17:24 51.05222 4.28855 10175 ft 279 kts 330°
2026-05-06 17:24 51.06948 4.27264 10853 ft 292 kts 330°
2026-05-06 17:24 51.08758 4.25590 11358 ft 311 kts 329°
2026-05-06 17:25 51.10684 4.23806 11835 ft 330 kts 329°
2026-05-06 17:25 51.12722 4.21917 12289 ft 349 kts 329°
2026-05-06 17:25 51.14861 4.19931 12741 ft 366 kts 329°
2026-05-06 17:25 51.17043 4.17722 13505 ft 374 kts 325°
2026-05-06 17:26 51.19175 4.15295 14422 ft 377 kts 323°
2026-05-06 17:26 51.21276 4.12824 15292 ft 381 kts 323°
2026-05-06 17:26 51.23435 4.10271 16094 ft 387 kts 323°
2026-05-06 17:26 51.25670 4.07767 16850 ft 392 kts 329°
2026-05-06 17:27 51.28181 4.06074 17598 ft 398 kts 343°
2026-05-06 17:27 51.30927 4.05344 18362 ft 404 kts 356°
2026-05-06 17:27 51.33732 4.05250 19095 ft 409 kts 358°
2026-05-06 17:27 51.36610 4.05236 19774 ft 414 kts 359°
2026-05-06 17:28 51.39505 4.05218 20452 ft 420 kts 358°
2026-05-06 17:28 51.42433 4.05178 21112 ft 425 kts 358°
2026-05-06 17:28 51.45375 4.05216 21709 ft 431 kts
2026-05-06 17:28 51.48396 4.05923 22308 ft 438 kts 12°
2026-05-06 17:29 51.51300 4.07353 22937 ft 444 kts 20°
2026-05-06 17:29 51.54136 4.09343 23559 ft 449 kts 23°
2026-05-06 17:29 51.56994 4.11487 24162 ft 453 kts 24°
2026-05-06 17:29 51.59841 4.13648 24755 ft 458 kts 24°
2026-05-06 17:30 51.62750 4.15845 25356 ft 462 kts 24°
2026-05-06 17:30 51.65676 4.18042 25957 ft 466 kts 24°
2026-05-06 17:30 51.68609 4.20234 26529 ft 469 kts 24°
2026-05-06 17:30 51.71568 4.22443 27076 ft 473 kts 24°
2026-05-06 17:31 51.74569 4.24684 27622 ft 477 kts 24°
2026-05-06 17:31 51.77582 4.26941 28152 ft 481 kts 24°
2026-05-06 17:31 51.80611 4.29215 28716 ft 483 kts 24°
2026-05-06 17:31 51.83646 4.31498 29486 ft 481 kts 24°
2026-05-06 17:32 51.86660 4.33769 30307 ft 478 kts 24°
2026-05-06 17:32 51.89647 4.36022 31055 ft 476 kts 24°
2026-05-06 17:32 51.92615 4.38264 31695 ft 474 kts 24°
2026-05-06 17:32 51.95605 4.40525 32327 ft 473 kts 24°
2026-05-06 17:33 51.98578 4.42777 32955 ft 470 kts 24°
2026-05-06 17:33 52.01524 4.45012 33561 ft 469 kts 24°
2026-05-06 17:33 52.04440 4.47227 34121 ft 467 kts 24°
2026-05-06 17:33 52.07375 4.49460 34607 ft 466 kts 24°
2026-05-06 17:34 52.10295 4.51684 35041 ft 465 kts 24°
2026-05-06 17:34 52.13138 4.53853 35416 ft 465 kts 24°
2026-05-06 17:34 52.16052 4.56078 35751 ft 465 kts 24°
2026-05-06 17:34 52.18941 4.58289 36062 ft 466 kts 24°
2026-05-06 17:35 52.21871 4.60534 36346 ft 467 kts 24°
2026-05-06 17:35 52.24799 4.62781 36588 ft 469 kts 24°
2026-05-06 17:35 52.27740 4.65040 36815 ft 471 kts 24°
2026-05-06 17:36 52.33698 4.69628 37227 ft 476 kts 24°
2026-05-06 17:36 52.36659 4.71913 37420 ft 478 kts 24°
2026-05-06 17:36 52.39677 4.74246 37614 ft 480 kts 24°
2026-05-06 17:36 52.42697 4.76585 37801 ft 482 kts 24°
2026-05-06 17:37 52.45744 4.78991 37909 ft 485 kts 26°
2026-05-06 17:37 52.48698 4.81625 37911 ft 486 kts 29°
2026-05-06 17:37 52.54343 4.87761 37921 ft 487 kts 36°
2026-05-06 17:38 52.59547 4.94998 37920 ft 488 kts 43°
2026-05-06 17:38 52.64290 5.02994 37923 ft 489 kts 47°
2026-05-06 17:39 52.68754 5.11430 37928 ft 490 kts 49°
2026-05-06 17:39 52.73185 5.20049 38086 ft 494 kts 49°
2026-05-06 17:40 52.75410 5.24365 38349 ft 493 kts 49°
2026-05-06 17:40 52.77646 5.28696 38598 ft 492 kts 49°
2026-05-06 17:40 52.79874 5.33011 38799 ft 493 kts 49°
2026-05-06 17:40 52.82107 5.37336 38907 ft 494 kts 49°
2026-05-06 17:41 52.86576 5.46011 38911 ft 494 kts 49°
2026-05-06 17:41 52.91049 5.54719 38920 ft 494 kts 49°
2026-05-06 17:42 52.95508 5.63430 38919 ft 495 kts 49°
2026-05-06 17:42 52.99937 5.72113 38915 ft 495 kts 49°
2026-05-06 17:43 53.04385 5.80861 38918 ft 496 kts 49°
2026-05-06 17:43 53.08830 5.89630 38916 ft 496 kts 49°
2026-05-06 17:44 53.13164 5.98215 38919 ft 496 kts 50°
2026-05-06 17:44 53.17579 6.06992 38918 ft 496 kts 49°
2026-05-06 17:45 53.22031 6.15873 38921 ft 496 kts 49°
2026-05-06 17:45 53.26471 6.24759 38923 ft 496 kts 49°
2026-05-06 17:46 53.30895 6.33647 38928 ft 496 kts 49°
2026-05-06 17:46 53.35325 6.42577 38925 ft 497 kts 49°
2026-05-06 17:47 53.39736 6.51502 38924 ft 497 kts 49°
2026-05-06 17:47 53.44157 6.60476 38925 ft 498 kts 50°
2026-05-06 17:48 53.48571 6.69470 38920 ft 498 kts 50°
2026-05-06 17:48 53.52998 6.78528 38921 ft 498 kts 50°
2026-05-06 17:49 53.57403 6.87573 38921 ft 497 kts 50°
2026-05-06 17:49 53.61798 6.96626 38919 ft 497 kts 50°
2026-05-06 17:50 53.66156 7.05637 38914 ft 497 kts 50°
2026-05-06 17:50 53.70525 7.14704 38915 ft 498 kts 50°
2026-05-06 17:51 53.74901 7.23819 38914 ft 498 kts 50°
2026-05-06 17:51 53.79258 7.32925 38918 ft 499 kts 50°
2026-05-06 17:52 53.83630 7.42099 38914 ft 500 kts 50°
2026-05-06 17:52 53.87996 7.51295 38916 ft 500 kts 50°
2026-05-06 17:53 53.92318 7.60431 38916 ft 500 kts 50°
2026-05-06 17:53 53.96671 7.69666 38912 ft 500 kts 51°
2026-05-06 17:54 54.01014 7.78913 38904 ft 501 kts 51°
2026-05-06 17:54 54.05392 7.88271 38902 ft 501 kts 51°
2026-05-06 17:55 54.09737 7.97591 38899 ft 501 kts 51°
2026-05-06 17:55 54.14060 8.06902 38902 ft 502 kts 51°
2026-05-06 17:56 54.18390 8.16260 38900 ft 502 kts 51°
2026-05-06 17:56 54.22704 8.25623 38899 ft 501 kts 51°
2026-05-06 17:57 54.27025 8.35033 38899 ft 501 kts 51°
2026-05-06 17:57 54.31339 8.44464 38896 ft 501 kts 51°
2026-05-06 17:58 54.35616 8.53851 38896 ft 501 kts 51°
2026-05-06 17:58 54.39936 8.63370 38893 ft 502 kts 51°
2026-05-06 17:59 54.44224 8.72851 38893 ft 502 kts 52°
2026-05-06 17:59 54.48505 8.82349 38892 ft 502 kts 52°
2026-05-06 18:00 54.52759 8.91830 38884 ft 501 kts 52°
2026-05-06 18:00 54.54888 8.96591 38698 ft 496 kts 52°
2026-05-06 18:00 54.56997 9.01312 38294 ft 494 kts 52°
2026-05-06 18:01 54.59081 9.05988 37867 ft 493 kts 52°
2026-05-06 18:01 54.61166 9.10674 37544 ft 489 kts 52°
2026-05-06 18:01 54.63232 9.15327 37219 ft 486 kts 52°
2026-05-06 18:01 54.65303 9.19998 36861 ft 484 kts 52°
2026-05-06 18:02 54.67318 9.24553 36477 ft 483 kts 52°
2026-05-06 18:02 54.69352 9.29157 36083 ft 482 kts 52°
2026-05-06 18:02 54.71404 9.33813 35669 ft 482 kts 52°
2026-05-06 18:02 54.73428 9.38414 35233 ft 482 kts 52°
2026-05-06 18:03 54.75483 9.43093 34713 ft 483 kts 52°
2026-05-06 18:03 54.77513 9.47721 34139 ft 484 kts 52°
2026-05-06 18:03 54.79550 9.52377 33484 ft 485 kts 52°
2026-05-06 18:03 54.81603 9.57075 32780 ft 486 kts 53°
2026-05-06 18:04 54.83659 9.61793 32051 ft 488 kts 53°
2026-05-06 18:04 54.85697 9.66475 31314 ft 490 kts 54°
2026-05-06 18:04 54.87777 9.71267 30503 ft 492 kts 54°
2026-05-06 18:04 54.89849 9.76055 29678 ft 494 kts 54°
2026-05-06 18:05 54.91916 9.80838 29093 ft 494 kts 54°
2026-05-06 18:05 54.94003 9.85678 28911 ft 496 kts 53°
2026-05-06 18:05 54.98140 9.95287 28371 ft 490 kts 53°
2026-05-06 18:06 55.00172 10.00027 27469 ft 493 kts 53°
2026-05-06 18:06 55.02254 10.04890 26801 ft 490 kts 53°
2026-05-06 18:06 55.04272 10.09611 26249 ft 485 kts 53°
2026-05-06 18:06 55.06298 10.14362 25638 ft 481 kts 53°
2026-05-06 18:07 55.08017 10.19301 24970 ft 478 kts 67°
2026-05-06 18:07 55.09066 10.24763 24417 ft 472 kts 75°
2026-05-06 18:07 55.09915 10.30379 23855 ft 468 kts 76°
2026-05-06 18:07 55.10727 10.35848 23316 ft 464 kts 75°
2026-05-06 18:08 55.11579 10.41341 22786 ft 460 kts 75°
2026-05-06 18:08 55.12393 10.46375 22302 ft 455 kts 74°
2026-05-06 18:08 55.13280 10.51708 21774 ft 451 kts 73°
2026-05-06 18:08 55.14177 10.57009 21237 ft 447 kts 73°
2026-05-06 18:09 55.15056 10.62172 20711 ft 443 kts 73°
2026-05-06 18:09 55.15945 10.67377 20185 ft 438 kts 73°
2026-05-06 18:09 55.16814 10.72471 19652 ft 434 kts 73°
2026-05-06 18:09 55.17676 10.77524 19120 ft 431 kts 73°
2026-05-06 18:10 55.18526 10.82522 18593 ft 427 kts 73°
2026-05-06 18:10 55.19362 10.87452 18093 ft 422 kts 73°
2026-05-06 18:10 55.20202 10.92413 17590 ft 418 kts 73°
2026-05-06 18:10 55.21021 10.97273 17085 ft 414 kts 73°
2026-05-06 18:11 55.21825 11.02047 16581 ft 410 kts 73°
2026-05-06 18:11 55.22631 11.06850 16078 ft 406 kts 73°
2026-05-06 18:11 55.23418 11.11556 15574 ft 402 kts 73°
2026-05-06 18:11 55.24205 11.16275 15068 ft 399 kts 73°
2026-05-06 18:12 55.24976 11.20915 14546 ft 396 kts 73°
2026-05-06 18:12 55.25745 11.25551 14038 ft 393 kts 73°
2026-05-06 18:12 55.26499 11.30096 13543 ft 389 kts 73°
2026-05-06 18:12 55.27250 11.34641 13191 ft 381 kts 73°
2026-05-06 18:13 55.27982 11.39090 12988 ft 370 kts 73°
2026-05-06 18:13 55.28686 11.43380 12682 ft 362 kts 73°
2026-05-06 18:13 55.29375 11.47586 12243 ft 359 kts 73°
2026-05-06 18:13 55.30053 11.51743 11794 ft 356 kts 73°
2026-05-06 18:14 55.30733 11.55922 11351 ft 352 kts 73°
2026-05-06 18:14 55.31405 11.60057 10913 ft 349 kts 73°
2026-05-06 18:14 55.32069 11.64159 10455 ft 346 kts 73°
2026-05-06 18:14 55.32721 11.68183 9992 ft 344 kts 74°
2026-05-06 18:15 55.33386 11.72297 9479 ft 342 kts 73°
2026-05-06 18:15 55.34050 11.76402 8956 ft 341 kts 73°
2026-05-06 18:15 55.34707 11.80473 8440 ft 340 kts 73°
2026-05-06 18:15 55.35359 11.84535 8017 ft 335 kts 73°
2026-05-06 18:16 55.35986 11.88453 7926 ft 327 kts 73°
2026-05-06 18:16 55.36603 11.92313 7927 ft 327 kts 73°
2026-05-06 18:16 55.37217 11.96166 7794 ft 326 kts 73°
2026-05-06 18:16 55.37836 12.00059 7406 ft 324 kts 73°
2026-05-06 18:17 55.38438 12.03859 7025 ft 321 kts 73°
2026-05-06 18:17 55.39035 12.07631 6637 ft 318 kts 73°
2026-05-06 18:17 55.39634 12.11422 6246 ft 315 kts 73°
2026-05-06 18:17 55.40214 12.15089 5866 ft 313 kts 73°
2026-05-06 18:18 55.40794 12.18769 5480 ft 311 kts 74°
2026-05-06 18:18 55.41366 12.22415 5093 ft 308 kts 74°
2026-05-06 18:18 55.41939 12.26078 4709 ft 306 kts 74°
2026-05-06 18:18 55.42497 12.29660 4329 ft 303 kts 75°
2026-05-06 18:19 55.43054 12.33237 3941 ft 300 kts 74°
2026-05-06 18:19 55.43905 12.36589 3559 ft 299 kts 55°
2026-05-06 18:19 55.45323 12.39212 3303 ft 293 kts 41°
2026-05-06 18:19 55.46903 12.41421 3047 ft 286 kts 40°
2026-05-06 18:20 55.48417 12.43597 2857 ft 278 kts 42°
2026-05-06 18:20 55.49886 12.45845 2492 ft 276 kts 43°
2026-05-06 18:20 55.51339 12.48124 2102 ft 275 kts 43°
2026-05-06 18:20 55.52753 12.50329 1709 ft 266 kts 43°
2026-05-06 18:21 55.54112 12.52434 1381 ft 255 kts 43°
2026-05-06 18:21 55.55398 12.54424 1025 ft 233 kts 43°
2026-05-06 18:21 55.56557 12.56220 756 ft 211 kts 44°
2026-05-06 18:21 55.57626 12.57878 506 ft 198 kts 44°
2026-05-06 18:22 55.58647 12.59455 226 ft 188 kts 44°
2026-05-06 18:22 55.59610 12.60951 48 ft 176 kts 44°
2026-05-06 18:22 55.60410 12.62209 35 ft 139 kts 40°
2026-05-06 18:22 55.60978 12.63076 27 ft 82 kts 43°
2026-05-06 18:23 55.61298 12.63564 29 ft 41 kts 40°
2026-05-06 18:23 55.61525 12.63916 32 ft 44 kts 41°
2026-05-06 18:23 55.61681 12.64088 33 ft 19 kts
2026-05-06 18:23 55.61821 12.64075 33 ft 21 kts 355°
2026-05-06 18:24 55.61961 12.64143 35 ft 21 kts 24°
2026-05-06 18:24 55.62101 12.64262 35 ft 18 kts 25°
2026-05-06 18:24 55.62143 12.64297 35 ft 0 kts 25°
2026-05-06 18:26 55.62146 12.64299 35 ft 2 kts 25°
2026-05-06 18:26 55.62188 12.64335 34 ft 9 kts 25°
2026-05-06 18:27 55.62242 12.64376 34 ft 7 kts 18°
2026-05-06 18:27 55.62310 12.64411 34 ft 11 kts 15°
2026-05-06 18:27 55.62343 12.64426 35 ft 0 kts 15°
2026-05-06 18:29 55.62345 12.64427 35 ft 1 kts 15°
2026-05-06 18:29 55.62385 12.64446 35 ft 8 kts
2026-05-06 18:29 55.62448 12.64398 35 ft 12 kts 308°
2026-05-06 18:29 55.62503 12.64259 35 ft 9 kts 303°
2026-05-06 18:30 55.62543 12.64195 35 ft 9 kts 349°
2026-05-06 18:30 55.62590 12.64270 35 ft 10 kts 68°
2026-05-06 18:30 55.62616 12.64381 35 ft 4 kts 66°
2026-05-06 18:30 55.62621 12.64403 35 ft 0 kts 66°